Location: Bernay
(48.6766°N, 2.9386°E)
Time: 01:12:33
(UTC+00:00)

SJ 16-02 - Pass Details

Date: 25 April 2026
Orbit: 582 x 592 km, 75.0° (Epoch: 19 May)

Event Time Altitude Azimuth Distance (km) Brightness Sun altitude
Rises 20:18:14 0° 348° (NNW) 2,824 5.6 -12.8°
Reaches altitude 10° 20:20:54 10° 4° (N) 1,917 4.4 -13.1°
Maximum altitude 20:24:14 22° 55° (NE) 1,309 2.9 -13.6°
Enters shadow 20:26:14 16° 92° (E) 1,552 2.9 -13.8°
